Weather in Kragujevac

Serbia     44°00′35″N   20°54′52″E
temp.,
°C
wind,
m/s
gust,
m/s
humid.,
%
clouds,
%
prec.,
mm/h
press.,
hPa
HPBL,
m
29 june, wed
wed2923:00+19s34730 0.0 101861
02:00+18s22770 0.0 101837
05:00+17s22780 0.0 101636
08:00+24se34515 0.0 1016341
11:00+30se563314 0.0 10141051
14:00+34se562397 0.0 10122057
17:00+35se562228 0.0 10102271
20:00+27ese23431 0.0 101129
30 june, thu
thu3023:00+22s115719 0.0 101211
02:00+21s22590 0.0 101229
05:00+19ssw22643 0.0 101227
08:00+26s24440 0.0 1013358
11:00+32s22316 0.0 10121267
14:00+36se12250 0.0 10112601
17:00+34e122597 0.0 10091808
20:00+22wsw4773100 0.9 1012131
1 july, fri
fri123:00+21ssw237197 0.3 101367
02:00+18ssw227797 0.3 101332
05:00+17ssw22768 0.1 101326
08:00+25ssw22486 0.1 1014263
11:00+33ssw112941 0.0 10131025
14:00+37sse222193 0.0 10123197
17:00+37s22183 0.0 10103481
20:00+28se613406 0.0 1012453
2 july, sat
sat223:00+22sse225754 0.0 101416
02:00+20ssw227127 0.1 101422
05:00+18nw248985 1.1 101778
08:00+19nw238225 1.8 1020455
11:00+25nnw33547 0.0 10201004
14:00+30nnw33412 0.0 10191421
17:00+31n43370 0.0 10171786
20:00+20wnw348724 2.6 101856
3 july, sun
sun323:00+19ssw22902 3.4 101920
02:00+18sw22900 4.7 101913
05:00+18sw11910 0.1 101913
08:00+22nnw00760 0.1 1020261
11:00+28ne22490 0.0 10191177
14:00+32e32350 0.0 10172055
17:00+32e323419 0.0 10162198
20:00+26nnw345497 0.0 101691